Orbital Elements at Epoch 2459200.5 (2020-Dec-17.0) TDB
Reference: JPL 34 (heliocentric ecliptic J2000)
Element | Value | Uncertainty (1-sigma) | Units |
e | .1993376408621166 | 4.175e-08 | |
a | 3.141549423176022 | 1.8749e-08 | au |
q | 2.515320372508371 | 1.3137e-07 | au |
i | 16.07295609739714 | 4.5825e-06 | deg |
node | 247.3407023590751 | 1.5102e-05 | deg |
peri | 160.700173418886 | 1.8736e-05 | deg |
M | 77.20941605999923 | 1.0212e-05 | deg |
tp | 2458764.303638444603 (2019-Oct-07.80363844) | 5.6962e-05 | TDB |
period | 2033.828232011428 5.57 | 1.8207e-05 4.985e-08 | d yr |
n | .1770060983193084 | 1.5845e-09 | deg/d |
Q | 3.767778473843673 | 2.2486e-08 | au |
|
| | Orbit Determination Parameters
Additional Information
|